[[{"header":{"parameterUnit":"m.s-1","parameterCategory":2,"la1":30.2991,"la2":30.254,"lo1":-89.0895,"lo2":-89.0444,"dy":0.0017,"dx":0.0017,"nx":28,"ny":28,"refTime":"2023-09-06T03:00:00:Z","depth":"0","parameterNumber":2,"parameterNumberName":"U-component_of_CURRENTS"},"data":[0,0,0,0,0,0,0,0,0,0,0,0,0,0,0,0,0,0,0,0,0,0,0,0,0,0,0,0,0,0,0,0,0,0,0,0,0,0,0,0,0,0,0,0,0,0,0,0,0,0,0,0,0,0,0,0,0,0,0.2217,0.2217,0,0.2208,0.2208,0.2208,0.2226,0.2226,0.2227,0.2227,0.2216,0.2216,0.2215,0,0,0,0,0,0,0,0,0,0,0,0,0,0.2195,0.2196,0.2217,0.2217,0.2217,0.2209,0.2208,0.2208,0.2226,0.2226,0.2227,0.2228,0.2217,0.2216,0.2215,0,0,0,0,0,0,0,0,0,0,0,0,0,0.2197,0.2196,0.2217,0.2225,0.2225,0.2209,0.2208,0.2208,0.2225,0.2226,0.2227,0.2228,0.2217,0.2216,0.2215,0.219,0,0,0.2211,0.221,0,0,0,0,0,0,0,0,0.2197,0.2198,0.2224,0.2224,0.2225,0.2219,0.2196,0.2202,0.2225,0.2225,0.2227,0.2228,0.2216,0.2215,0.2212,0.2189,0.2189,0.2211,0.221,0.2209,0.2209,0,0,0,0,0,0,0,0.2197,0.2198,0.2214,0.2224,0.2224,0.221,0.2212,0.2197,0.2216,0.2225,0.2227,0.2225,0.2217,0.2213,0.2212,0.2189,0.2211,0.221,0.2209,0.2208,0.2208,0.2209,0,0,0,0,0,0,0.22,0.2199,0.2214,0.2214,0.2213,0.221,0.2212,0.222,0.2216,0.2217,0.2225,0.2226,0.2215,0.2213,0.2211,0.2226,0.2209,0.2208,0.2208,0.2208,0.2209,0.2209,0,0,0,0,0,0,0.22,0.2202,0.2215,0.2205,0.2206,0.221,0.2218,0.2219,0.2222,0.2216,0.2216,0.2227,0.2215,0.2213,0.2217,0.2224,0.2208,0.2207,0.2207,0.2208,0.2209,0.2228,0,0,0,0,0,0,0.22,0.2202,0.2209,0.2206,0.2207,0.2213,0.2218,0.2219,0.2219,0.2221,0.2217,0.2217,0.2216,0.2219,0.2216,0.2222,0.2206,0.2206,0.2207,0.2209,0.2226,0.2229,0.2232,0,0,0,0,0,0.2199,0.2201,0.2209,0.2211,0.2216,0.2213,0.2212,0.2217,0.2219,0.2221,0.2227,0.2218,0.2226,0.2219,0.2215,0.2221,0.2205,0.2207,0.2209,0.2225,0.2229,0.2232,0,0,0,0,0,0,0.2175,0.2203,0.2212,0.2218,0.2221,0.2216,0.2213,0.2216,0.222,0.2221,0.222,0.2221,0.2232,0.2222,0.2214,0.2228,0.2216,0.2217,0.223,0.2233,0.2236,0.2234,0.2205,0,0,0,0,0,0.2177,0.2198,0.2208,0.221,0.2214,0.2214,0.2212,0.2215,0.2217,0.222,0.222,0.2223,0.2233,0.223,0.2235,0.2229,0.2241,0.2234,0.2237,0.224,0.2237,0.2277,0.2283,0.2215,0.2215,0.2215,0,0,0.2162,0.2183,0.219,0.2208,0.2209,0.2207,0.2215,0.2212,0.2215,0.2216,0.222,0.2233,0.2237,0.2246,0.2249,0.2238,0.2265,0.2242,0.2244,0.224,0.228,0.2286,0.2292,0.2216,0.2216,0.2216,0,0,0.2138,0.2166,0.2173,0.2181,0.2191,0.2199,0.22,0.2203,0.2214,0.2216,0.2231,0.225,0.2244,0.2261,0.2266,0.2283,0.2285,0.2284,0.2287,0.2326,0.2332,0.2337,0.236,0.2367,0.2278,0.2278,0.2278,0,0.2113,0.2132,0.2168,0.2171,0.2172,0.2196,0.2186,0.2201,0.2206,0.2215,0.222,0.2248,0.2253,0.2278,0.2291,0.2289,0.2308,0.2272,0.233,0.2336,0.2341,0.2363,0.237,0.2279,0.2279,0.2279,0.2279,0,0.2095,0.2108,0.2107,0.2133,0.2141,0.2136,0.2163,0.2177,0.2192,0.2205,0.2237,0.226,0.2275,0.2287,0.2291,0.2332,0.2333,0.2336,0.232,0.2349,0.237,0.2378,0.2281,0.228,0.228,0.228,0,0,0.2023,0.2086,0.2081,0.2094,0.2121,0.2123,0.2141,0.2163,0.2178,0.2205,0.2225,0.2262,0.2282,0.2291,0.2312,0.2347,0.2402,0.2355,0.2356,0.2375,0.2483,0.2451,0.2456,0.242,0.2422,0.2423,0.2483,0,0.1987,0.201,0.2041,0.204,0.2049,0.2084,0.2099,0.2127,0.2159,0.2189,0.2236,0.2265,0.2283,0.2299,0.2339,0.2388,0.2424,0.2385,0.2454,0.2456,0.2422,0.2464,0.2337,0.2377,0.2491,0.2492,0.2493,0,0.1941,0.1973,0.1984,0.202,0.2023,0.2027,0.2064,0.2081,0.2139,0.2164,0.221,0.2248,0.2307,0.2321,0.2416,0.2392,0.2438,0.2477,0.248,0.2447,0.2438,0.2368,0.2387,0.2301,0.2505,0.2504,0.2503,0,0.1891,0.1918,0.1939,0.1948,0.1997,0.2003,0.2023,0.2072,0.209,0.2158,0.2177,0.2252,0.229,0.2366,0.2437,0.2435,0.254,0.2545,0.2559,0.2557,0.2459,0.2445,0.2399,0.2619,0.2618,0.2618,0.2618,0,0.1848,0.1845,0.1922,0.193,0.1934,0.1977,0.1983,0.2018,0.2068,0.2093,0.2165,0.2203,0.2307,0.2374,0.2441,0.2517,0.2543,0.2567,0.2576,0.2461,0.2447,0.2376,0.2353,0.262,0.262,0.262,0.2619,0,0.1779,0.1833,0.1847,0.1906,0.1914,0.1918,0.1946,0.196,0.2016,0.2054,0.2077,0.2173,0.2266,0.2356,0.2477,0.2513,0.252,0.2614,0.2462,0.2452,0.2381,0.2365,0.2306,0.2239,0.2642,0.2642,0.2642,0,0.1743,0.1759,0.182,0.1832,0.1853,0.1867,0.1876,0.1926,0.1947,0.2036,0.2055,0.2153,0.2217,0.2366,0.2455,0.2557,0.2495,0.249,0.2467,0.2362,0.2351,0.2295,0.2237,0.2345,0.2343,0.234,0.2339,0,0.1674,0.1709,0.1744,0.1777,0.179,0.1793,0.1817,0.1823,0.1894,0.1924,0.1993,0.2052,0.2202,0.226,0.2385,0.2429,0.2346,0.2448,0.2378,0.2148,0.2044,0.1986,0.2315,0.2319,0.2321,0.2322,0.2323,0.2324,0.1612,0.163,0.1694,0.1709,0.1723,0.1722,0.1699,0.1737,0.175,0.1784,0.1897,0.1951,0.2073,0.224,0.225,0.2197,0.2254,0.2145,0.2146,0.2107,0.1995,0.2278,0.2269,0.2271,0.2272,0.2274,0.2275,0,0.1532,0.1582,0.1615,0.1634,0.1616,0.1648,0.1654,0.1623,0.1608,0.1679,0.1721,0.1838,0.1881,0.1957,0.1991,0.1911,0.1829,0.1838,0.1708,0.1678,0.1954,0.1891,0.1752,0.1752,0.1752,0.1752,0.1752,0.1752,0.1502,0.1518,0.1554,0.1521,0.1526,0.1465,0.1452,0.1428,0.1453,0.1465,0.1516,0.1616,0.1767,0.1794,0.1696,0.1641,0.151,0.1447,0.1475,0.164,0.1667,0.1693,0.1627,0.1434,0.1434,0.1102,0.1099,0.1097]},{"header":{"parameterUnit":"m.s-1","parameterCategory":2,"la1":30.2991,"la2":30.254,"lo1":-89.0895,"lo2":-89.0444,"dy":0.0017,"dx":0.0017,"nx":28,"ny":28,"refTime":"2023-09-06T03:00:00:Z","depth":"0","parameterNumber":3,"parameterNumberName":"V-component_of_CURRENTS"},"data":[0,0,0,0,0,0,0,0,0,0,0,0,0,0,0,0,0,0,0,0,0,0,0,0,0,0,0,0,0,0,0,0,0,0,0,0,0,0,0,0,0,0,0,0,0,0,0,0,0,0,0,0,0,0,0,0,0,0,0.0137,0.0136,0,0.0098,0.0097,0.0097,0.0082,0.0082,0.0082,0.0082,0.0038,0.0037,0.0035,0,0,0,0,0,0,0,0,0,0,0,0,0,0.0178,0.0177,0.0137,0.0136,0.0136,0.0098,0.0097,0.0097,0.0082,0.0082,0.0082,0.0083,0.0038,0.0037,0.0035,0,0,0,0,0,0,0,0,0,0,0,0,0,0.0151,0.0177,0.0137,0.0125,0.0123,0.0098,0.0097,0.0097,0.0082,0.0082,0.0082,0.0083,0.0039,0.0037,0.0035,0.0016,0,0,0.0029,0.0028,0,0,0,0,0,0,0,0,0.0152,0.0149,0.0127,0.0125,0.0124,0.0096,0.0096,0.007,0.0082,0.0096,0.0082,0.0083,0.0057,0.0054,0.0044,0.0014,0.0012,0.0028,0.0027,0.0026,0.0026,0,0,0,0,0,0,0,0.0154,0.0151,0.012,0.0126,0.0124,0.0114,0.0111,0.0091,0.0075,0.0095,0.0094,0.0091,0.0056,0.0046,0.0043,0.0012,0.0028,0.0027,0.0025,0.0025,-0.003,-0.0031,0,0,0,0,0,0,0.0162,0.0153,0.0122,0.0119,0.014,0.0114,0.011,0.0104,0.0075,0.0071,0.0091,0.0091,0.005,0.0046,0.0042,0.0028,0.0026,0.0024,0.0023,-0.003,-0.003,-0.0031,0,0,0,0,0,0,0.0163,0.0159,0.0123,0.0136,0.0131,0.0113,0.0106,0.0103,0.0091,0.0072,0.0068,0.0083,0.005,0.0045,0.0026,0.0026,0.0023,0.0022,-0.003,-0.003,-0.0031,-0.0006,0,0,0,0,0,0,0.0164,0.016,0.0155,0.0136,0.013,0.0107,0.0106,0.0102,0.0089,0.0089,0.0064,0.006,0.005,0.0029,0.0024,0.0023,0.002,-0.003,-0.003,-0.003,-0.0006,-0.0005,-0.0004,0,0,0,0,0,0.0165,0.0162,0.0155,0.0151,0.0125,0.0107,0.0102,0.009,0.0089,0.0081,0.0069,0.0061,0.0023,0.0028,0.0021,0.002,-0.0029,-0.003,-0.003,-0.0007,-0.0006,-0.0004,0,0,0,0,0,0,0.0174,0.0159,0.0151,0.0142,0.0124,0.0105,0.0098,0.0088,0.0072,0.0073,0.0056,0.0051,0.0036,0.0021,0.0027,0.0002,-0.0004,-0.0006,0.0016,0.0017,0.0018,0.0035,0.0018,0,0,0,0,0,0.0174,0.0171,0.0149,0.0142,0.0134,0.0114,0.0105,0.0096,0.008,0.0073,0.0059,0.0043,0.0028,0.0018,0.0003,-0.0015,-0.0013,-0.002,-0.0019,-0.0018,-0.0008,-0.0003,0.0,-0.0032,-0.0032,-0.0032,0,0,0.0176,0.0167,0.0165,0.0144,0.0131,0.0123,0.0109,0.0096,0.0092,0.0071,0.0063,0.0046,0.0025,0.0011,0.0003,-0.0001,-0.001,-0.0018,-0.0017,-0.0008,-0.0003,0.0,0.0003,-0.0033,-0.0033,-0.0033,0,0,0.0183,0.0169,0.0169,0.0157,0.0139,0.0127,0.0124,0.0103,0.0095,0.0081,0.0069,0.0054,0.0027,0.0017,0.0007,0.0001,-0.0003,-0.0009,0.0008,0.0014,0.0017,0.002,0.0022,0.0025,-0.001,-0.001,-0.001,0,0.0184,0.0182,0.0165,0.0161,0.0157,0.0132,0.013,0.0117,0.0094,0.0092,0.0083,0.0055,0.0033,0.0024,0.0021,0.0005,0.0008,0.0007,0.0017,0.002,0.0022,0.0024,0.0027,-0.0009,-0.0009,-0.0009,-0.0009,0,0.0191,0.0188,0.0187,0.0179,0.0169,0.0163,0.0145,0.0137,0.0126,0.0115,0.0103,0.0076,0.0064,0.0048,0.0031,0.0034,0.003,0.002,0.0018,0.0027,0.0028,0.0031,-0.0007,-0.0007,-0.0008,-0.0008,0,0,0.0197,0.0193,0.0194,0.0198,0.0179,0.0176,0.0171,0.016,0.0168,0.0141,0.0151,0.0113,0.0103,0.0091,0.0067,0.0063,0.0074,0.005,0.005,0.0061,0.0088,0.0078,0.008,0.007,0.007,0.0071,0.008,0,0.0207,0.0215,0.0207,0.0216,0.0219,0.0202,0.0204,0.0195,0.0184,0.0187,0.0159,0.0156,0.0118,0.0115,0.0105,0.0088,0.0083,0.0073,0.007,0.007,0.0068,0.0084,0.0097,0.0106,0.0083,0.0083,0.0083,0,0.0221,0.0225,0.0239,0.0246,0.0246,0.0249,0.0257,0.0254,0.0248,0.0242,0.0231,0.0212,0.0199,0.0169,0.0148,0.0145,0.012,0.0101,0.0101,0.0088,0.0066,0.0093,0.0112,0.0024,0.0087,0.0087,0.0087,0,0.0249,0.0251,0.0268,0.0269,0.027,0.0277,0.0277,0.0274,0.0281,0.0282,0.0291,0.027,0.0268,0.0238,0.0188,0.0175,0.0169,0.0147,0.0114,0.0113,0.0122,0.0121,0.0066,0.0137,0.0137,0.0137,0.0137,0,0.0271,0.0285,0.0285,0.0297,0.0321,0.0309,0.0336,0.0332,0.0338,0.0358,0.0325,0.0339,0.0286,0.0268,0.0219,0.0179,0.0193,0.0127,0.0119,0.0129,0.0129,0.0051,-0.0005,0.0137,0.0137,0.0137,0.0137,0,0.0306,0.0305,0.0327,0.0333,0.0339,0.0359,0.0373,0.0393,0.039,0.0418,0.0422,0.0402,0.0381,0.0321,0.0277,0.0224,0.014,0.016,0.0173,0.0167,0.0052,-0.0003,-0.0069,-0.0079,0.0135,0.0135,0.0135,0,0.0325,0.0341,0.036,0.0378,0.0384,0.0407,0.0427,0.0425,0.0444,0.0458,0.0478,0.0462,0.0462,0.039,0.0302,0.0227,0.0139,0.0174,0.0147,0.0054,-0.0012,-0.0063,-0.007,0.0168,0.0168,0.0168,0.0168,0,0.0359,0.0368,0.0386,0.0422,0.0448,0.0476,0.0499,0.0521,0.0525,0.0549,0.0576,0.0579,0.051,0.0446,0.033,0.0267,0.0117,0.0174,0.0081,0.0013,-0.0046,-0.0062,0.0145,0.017,0.017,0.017,0.017,0.0169,0.0384,0.0405,0.043,0.0466,0.0497,0.0535,0.0558,0.0586,0.0623,0.0652,0.0656,0.0679,0.0566,0.0419,0.0315,0.0126,0.0117,0.0062,0.0006,-0.0034,-0.0056,0.015,0.016,0.016,0.016,0.016,0.016,0,0.0409,0.0433,0.0469,0.0509,0.0545,0.0555,0.0599,0.0618,0.0665,0.0713,0.0739,0.0722,0.0565,0.0395,0.0143,-0.0012,-0.0058,-0.0106,-0.0174,-0.0169,0.0022,0.0012,-0.0012,-0.0012,-0.0012,-0.0012,-0.0012,-0.0012,0.0422,0.046,0.0479,0.054,0.0568,0.0605,0.0629,0.0661,0.07,0.0754,0.0792,0.0818,0.0698,0.0178,-0.0159,-0.0227,-0.0327,-0.0362,-0.0409,-0.0296,-0.0285,-0.0274,-0.0297,-0.0386,-0.0386,-0.056,-0.0562,-0.0564]}],[{"header":{"parameterUnit":"m.s-1","parameterCategory":2,"la1":30.2991,"la2":30.254,"lo1":-89.0895,"lo2":-89.0444,"dy":0.0017,"dx":0.0017,"nx":28,"ny":28,"refTime":"2023-09-06T03:00:00:Z","depth":"2","parameterNumber":2,"parameterNumberName":"U-component_of_CURRENTS"},"data":[0,0,0,0,0,0,0,0,0,0,0,0,0,0,0,0,0,0,0,0,0,0,0,0,0,0,0,0,0,0,0,0,0,0,0,0,0,0,0,0,0,0,0,0,0,0,0,0,0,0,0,0,0,0,0,0,0,0,0.1973,0.1974,0,0.1984,0.1983,0.1982,0.1993,0.1994,0.1996,0.1997,0.1997,0.1996,0.1995,0,0,0,0,0,0,0,0,0,0,0,0,0,0.1777,0.1781,0.1973,0.1974,0.1976,0.1984,0.1983,0.1982,0.1993,0.1994,0.1996,0.1997,0.1998,0.1996,0.1995,0,0,0,0,0,0,0,0,0,0,0,0,0,0.1821,0.1782,0.1973,0.1991,0.1994,0.1984,0.1983,0.1981,0.1992,0.1994,0.1996,0.1998,0.1998,0.1996,0.1995,0.1947,0,0,0.1989,0.1989,0,0,0,0,0,0,0,0,0.1819,0.1827,0.1987,0.199,0.1993,0.1999,0.1914,0.1973,0.1992,0.198,0.1997,0.1999,0.2003,0.2001,0.1982,0.1947,0.1947,0.1989,0.1988,0.1987,0.1987,0,0,0,0,0,0,0,0.1816,0.1826,0.1965,0.1989,0.1992,0.1935,0.1944,0.1924,0.1972,0.1981,0.1985,0.2005,0.2003,0.1984,0.1983,0.1947,0.1989,0.1988,0.1987,0.1986,0.1999,0.2,0,0,0,0,0,0,0.1847,0.1824,0.1965,0.1967,0.1922,0.1939,0.1948,0.1986,0.1972,0.1976,0.2003,0.2005,0.1986,0.1985,0.1983,0.2036,0.1987,0.1986,0.1985,0.1998,0.1999,0.2001,0,0,0,0,0,0,0.1843,0.186,0.1965,0.1903,0.1915,0.1943,0.1983,0.1985,0.2007,0.1991,0.1992,0.203,0.1987,0.1985,0.1998,0.2032,0.1985,0.1983,0.1996,0.1998,0.2,0.2071,0,0,0,0,0,0,0.1838,0.1859,0.1889,0.1907,0.192,0.1988,0.1983,0.1984,0.202,0.2023,0.2014,0.2013,0.1989,0.2001,0.1996,0.2029,0.1982,0.1994,0.1997,0.1999,0.2067,0.2075,0.2082,0,0,0,0,0,0.1831,0.1863,0.189,0.1908,0.1964,0.199,0.199,0.2006,0.202,0.2031,0.2029,0.2016,0.2015,0.2,0.1995,0.2027,0.1993,0.1996,0.1999,0.2064,0.2074,0.2082,0,0,0,0,0,0,0.1799,0.187,0.1899,0.1956,0.199,0.1997,0.2012,0.2027,0.2029,0.2042,0.2021,0.2019,0.2048,0.2025,0.201,0.2041,0.2006,0.2009,0.2057,0.2067,0.2074,0.2069,0.1981,0,0,0,0,0,0.181,0.1849,0.1909,0.1953,0.198,0.2003,0.2017,0.2036,0.2047,0.2052,0.2048,0.2046,0.2046,0.205,0.2041,0.2047,0.2044,0.2069,0.2077,0.2084,0.2077,0.211,0.212,0.2011,0.2011,0.2011,0,0,0.1809,0.1855,0.1878,0.1948,0.1974,0.2005,0.2013,0.2055,0.2074,0.205,0.207,0.2073,0.2055,0.2069,0.208,0.206,0.2117,0.2088,0.2093,0.2083,0.2114,0.2125,0.2134,0.2013,0.2013,0.2012,0,0,0.1822,0.1877,0.1917,0.1948,0.2013,0.2021,0.2049,0.2085,0.2101,0.212,0.2117,0.2144,0.213,0.2132,0.2127,0.2171,0.216,0.2178,0.2208,0.2241,0.225,0.2258,0.2283,0.2293,0.2179,0.2179,0.218,0,0.1819,0.1885,0.1928,0.1973,0.1995,0.2039,0.2073,0.2089,0.2121,0.2131,0.2142,0.2156,0.2157,0.2174,0.2196,0.219,0.2201,0.2174,0.2252,0.2259,0.2266,0.2289,0.2299,0.2183,0.2183,0.2182,0.2182,0,0.1861,0.1914,0.1939,0.2007,0.203,0.2066,0.2109,0.2136,0.2161,0.2174,0.2214,0.2219,0.2222,0.2246,0.2232,0.2284,0.2275,0.2262,0.2228,0.2282,0.2303,0.2312,0.2189,0.2187,0.2186,0.2185,0,0,0.1833,0.1948,0.1951,0.1984,0.205,0.2067,0.2109,0.2144,0.2165,0.221,0.223,0.2267,0.2282,0.2278,0.2287,0.2326,0.2402,0.2319,0.2319,0.2343,0.2475,0.238,0.238,0.2406,0.2407,0.2409,0.2476,0,0.1847,0.1931,0.1972,0.2016,0.2059,0.2095,0.2115,0.2152,0.2181,0.2208,0.2251,0.2272,0.229,0.2303,0.2349,0.2378,0.2425,0.2384,0.2419,0.2419,0.2328,0.2387,0.2134,0.2164,0.2484,0.2485,0.2486,0,0.1853,0.1913,0.1977,0.2028,0.2046,0.2064,0.2092,0.212,0.2172,0.2197,0.2242,0.2267,0.2329,0.2339,0.243,0.2403,0.2447,0.248,0.2483,0.2369,0.234,0.2159,0.2167,0.25,0.2499,0.2498,0.2497,0,0.1796,0.1886,0.1932,0.1956,0.2036,0.2048,0.207,0.2116,0.2133,0.2194,0.2215,0.2282,0.2316,0.2386,0.2456,0.2449,0.2555,0.2545,0.2506,0.25,0.2275,0.2245,0.2622,0.2622,0.2622,0.2622,0.2622,0,0.1767,0.1795,0.1912,0.1938,0.1959,0.2017,0.2027,0.2064,0.2113,0.2135,0.2203,0.2238,0.2334,0.2399,0.2463,0.2503,0.256,0.2517,0.2512,0.2293,0.2266,0.254,0.2529,0.2624,0.2624,0.2623,0.2623,0,0.1687,0.1772,0.1832,0.1928,0.1942,0.1955,0.1994,0.2008,0.2064,0.2098,0.212,0.2213,0.2305,0.2393,0.2506,0.2493,0.2553,0.256,0.2292,0.2254,0.2477,0.2469,0.2512,0.2509,0.2507,0.2505,0.2503,0,0.1648,0.169,0.1809,0.1838,0.1878,0.1906,0.1919,0.1974,0.1995,0.2083,0.2099,0.2199,0.2264,0.2374,0.2352,0.241,0.2542,0.2222,0.2157,0.2475,0.2467,0.2463,0.2459,0.19,0.1894,0.1889,0.1885,0,0.1587,0.1653,0.1717,0.1787,0.1817,0.1834,0.1865,0.1871,0.1943,0.1975,0.204,0.2101,0.2164,0.2086,0.2134,0.2144,0.2182,0.2116,0.252,0.1962,0.1901,0.1893,0.1908,0.1838,0.1842,0.1846,0.1848,0.185,0.1534,0.1573,0.168,0.1726,0.1757,0.1765,0.1745,0.1787,0.1802,0.1836,0.1937,0.1917,0.189,0.181,0.1797,0.176,0.192,0.1844,0.1859,0.188,0.1791,0.1729,0.1617,0.162,0.1623,0.1625,0.1628,0,0.1464,0.1535,0.16,0.1659,0.1655,0.1695,0.1703,0.1672,0.166,0.1691,0.1726,0.1486,0.1439,0.1464,0.1296,0.1302,0.1286,0.1297,0.1247,0.1292,0.1333,0.1216,0.089,0.0888,0.0887,0.0886,0,0,0.1437,0.148,0.1538,0.1542,0.1566,0.1517,0.1503,0.1478,0.1459,0.1373,0.1284,0.1374,0.1354,0.1068,0.1047,0.0953,0.1131,0.092,0.1496,0.1479,0.1519,0.1617,0.1483,0,0,0,0,0]},{"header":{"parameterUnit":"m.s-1","parameterCategory":2,"la1":30.2991,"la2":30.254,"lo1":-89.0895,"lo2":-89.0444,"dy":0.0017,"dx":0.0017,"nx":28,"ny":28,"refTime":"2023-09-06T03:00:00:Z","depth":"2","parameterNumber":3,"parameterNumberName":"V-component_of_CURRENTS"},"data":[0,0,0,0,0,0,0,0,0,0,0,0,0,0,0,0,0,0,0,0,0,0,0,0,0,0,0,0,0,0,0,0,0,0,0,0,0,0,0,0,0,0,0,0,0,0,0,0,0,0,0,0,0,0,0,0,0,0,-0.0534,-0.0535,0,-0.0594,-0.0595,-0.0595,-0.0601,-0.06,-0.0599,-0.0599,-0.06,-0.0601,-0.0602,0,0,0,0,0,0,0,0,0,0,0,0,0,-0.0397,-0.04,-0.0534,-0.0535,-0.0535,-0.0594,-0.0595,-0.0596,-0.0601,-0.06,-0.0599,-0.0598,-0.06,-0.0601,-0.0602,0,0,0,0,0,0,0,0,0,0,0,0,0,-0.0459,-0.0401,-0.0534,-0.0544,-0.0545,-0.0593,-0.0595,-0.0596,-0.0601,-0.06,-0.0599,-0.0598,-0.06,-0.0601,-0.0602,-0.0634,0,0,-0.0606,-0.0606,0,0,0,0,0,0,0,0,-0.0455,-0.0464,-0.0542,-0.0543,-0.0544,-0.0587,-0.0547,-0.0605,-0.0602,-0.0582,-0.0599,-0.0597,-0.059,-0.0592,-0.061,-0.0634,-0.0634,-0.0606,-0.0607,-0.0607,-0.0608,0,0,0,0,0,0,0,-0.0451,-0.0461,-0.056,-0.0542,-0.0544,-0.0535,-0.0543,-0.0558,-0.0593,-0.0584,-0.0584,-0.0587,-0.059,-0.0609,-0.061,-0.0634,-0.0606,-0.0607,-0.0608,-0.0608,-0.0633,-0.0633,0,0,0,0,0,0,-0.0443,-0.0458,-0.0558,-0.0561,-0.0493,-0.0538,-0.0547,-0.0576,-0.0594,-0.0595,-0.0588,-0.0587,-0.0607,-0.0608,-0.0609,-0.057,-0.0607,-0.0608,-0.0609,-0.0633,-0.0633,-0.0633,0,0,0,0,0,0,-0.044,-0.0452,-0.0556,-0.0507,-0.0519,-0.0542,-0.0574,-0.0578,-0.0567,-0.0598,-0.0598,-0.057,-0.0606,-0.0608,-0.0611,-0.0572,-0.0609,-0.061,-0.0633,-0.0633,-0.0633,-0.054,0,0,0,0,0,0,-0.0437,-0.0452,-0.0465,-0.0508,-0.0522,-0.0565,-0.0575,-0.058,-0.0572,-0.0571,-0.0583,-0.0584,-0.0605,-0.0609,-0.0612,-0.0575,-0.0611,-0.0633,-0.0633,-0.0633,-0.0543,-0.0537,-0.0532,0,0,0,0,0,-0.0432,-0.0448,-0.0466,-0.0477,-0.0542,-0.0564,-0.057,-0.0583,-0.0572,-0.0568,-0.0581,-0.0582,-0.061,-0.0611,-0.0614,-0.0576,-0.0633,-0.0633,-0.0633,-0.0546,-0.0538,-0.0532,0,0,0,0,0,0,-0.038,-0.0452,-0.0472,-0.0506,-0.0526,-0.0564,-0.0556,-0.0566,-0.0575,-0.0556,-0.0587,-0.059,-0.0581,-0.06,-0.06,-0.0587,-0.0619,-0.062,-0.0552,-0.0545,-0.0539,-0.0505,-0.0612,0,0,0,0,0,-0.0382,-0.0423,-0.0468,-0.0492,-0.0494,-0.052,-0.0527,-0.0529,-0.0546,-0.0547,-0.0558,-0.057,-0.0591,-0.0583,-0.0607,-0.0596,-0.0601,-0.0575,-0.0569,-0.0564,-0.0541,-0.0537,-0.0527,-0.0632,-0.0632,-0.0632,0,0,-0.0365,-0.0411,-0.0431,-0.0485,-0.0495,-0.049,-0.052,-0.0509,-0.0499,-0.0545,-0.0523,-0.0552,-0.0589,-0.0583,-0.0578,-0.0585,-0.0537,-0.0563,-0.0558,-0.0538,-0.0535,-0.0525,-0.0515,-0.0632,-0.0632,-0.0632,0,0,-0.0343,-0.0388,-0.0405,-0.0417,-0.0431,-0.0447,-0.0435,-0.0452,-0.0451,-0.0448,-0.048,-0.0483,-0.0506,-0.0523,-0.0537,-0.0512,-0.0516,-0.0517,-0.044,-0.0436,-0.0426,-0.0418,-0.0403,-0.0394,-0.05,-0.05,-0.05,0,-0.0309,-0.0346,-0.0404,-0.0404,-0.0394,-0.0418,-0.0391,-0.0405,-0.042,-0.0414,-0.042,-0.045,-0.0474,-0.0474,-0.0463,-0.0492,-0.049,-0.0459,-0.0424,-0.0416,-0.0409,-0.0396,-0.0388,-0.0496,-0.0496,-0.0497,-0.0497,0,-0.0295,-0.0307,-0.03,-0.0323,-0.0325,-0.0296,-0.0317,-0.0308,-0.0301,-0.0316,-0.0307,-0.035,-0.0364,-0.0372,-0.0404,-0.037,-0.0384,-0.0425,-0.0432,-0.0392,-0.0383,-0.0375,-0.0489,-0.0491,-0.0492,-0.0493,0,0,-0.0233,-0.0283,-0.0271,-0.0262,-0.0264,-0.026,-0.0238,-0.0231,-0.0209,-0.0217,-0.0194,-0.0221,-0.0236,-0.0254,-0.0295,-0.0278,-0.0227,-0.0311,-0.0313,-0.0277,-0.02,-0.0232,-0.0227,-0.0256,-0.0254,-0.0253,-0.021,0,-0.0179,-0.0178,-0.0208,-0.016,-0.0143,-0.0154,-0.014,-0.0138,-0.014,-0.0131,-0.0156,-0.0159,-0.0197,-0.0196,-0.0186,-0.0234,-0.0204,-0.0234,-0.0261,-0.0261,-0.0279,-0.0219,-0.0209,-0.0172,-0.0203,-0.0202,-0.0201,0,-0.0134,-0.0138,-0.0103,-0.0089,-0.0076,-0.0052,-0.0017,-0.0011,-0.0019,-0.0021,-0.0019,-0.0056,-0.0049,-0.0089,-0.0097,-0.0113,-0.0132,-0.0157,-0.0157,-0.0209,-0.0279,-0.0221,-0.0157,-0.0189,-0.019,-0.019,-0.0191,0,-0.0075,-0.005,-0.0023,-0.0013,-0.001,0.0021,0.0036,0.0035,0.0046,0.0049,0.0064,0.0047,0.0046,0.0021,-0.0033,-0.0056,-0.0039,-0.0092,-0.013,-0.0133,-0.014,-0.0147,-0.0067,-0.0067,-0.0067,-0.0067,-0.0068,0,-0.0018,0.0021,0.0011,0.0025,0.0091,0.0077,0.0133,0.0136,0.0142,0.0165,0.0126,0.0144,0.0078,0.0063,0.0011,-0.0029,-0.0005,-0.0089,-0.0115,-0.011,-0.0114,-0.0152,-0.0163,-0.0066,-0.0066,-0.0066,-0.0067,0,0.0032,0.0022,0.0061,0.0084,0.0106,0.0151,0.019,0.0217,0.022,0.0249,0.0256,0.0231,0.0213,0.0145,0.0101,0.0031,-0.0014,-0.0032,-0.0016,-0.0042,-0.0118,-0.0124,-0.0062,-0.0063,-0.0063,-0.0064,-0.0064,0,0.0054,0.0068,0.01,0.0134,0.0155,0.0213,0.0247,0.0259,0.0281,0.0303,0.0322,0.0315,0.0297,0.0219,0.0124,0.0043,0.0013,-0.0022,-0.0071,-0.008,-0.0113,-0.0119,-0.0124,-0.0039,-0.0039,-0.0039,-0.0039,0,0.0108,0.0108,0.0124,0.0179,0.0233,0.0285,0.0335,0.0361,0.0372,0.04,0.043,0.0419,0.0346,0.0255,0.013,0.0068,-0.0016,-0.0028,-0.002,-0.0057,-0.0059,-0.0091,-0.0097,-0.004,-0.0039,-0.0039,-0.0039,-0.0039,0.0155,0.017,0.0174,0.0236,0.0292,0.0349,0.0387,0.0427,0.0471,0.0503,0.0498,0.0489,0.039,0.0234,0.0119,-0.0003,0.0001,-0.0068,-0.0066,-0.0065,-0.0085,-0.009,-0.0079,-0.0079,-0.0079,-0.0079,-0.0079,0,0.0204,0.02,0.0239,0.0291,0.0341,0.0375,0.0437,0.0456,0.0508,0.055,0.0567,0.0469,0.0368,0.025,0.007,-0.0052,-0.0054,-0.0099,-0.008,-0.0078,-0.0077,-0.0098,-0.0094,-0.0095,-0.0095,-0.0095,0,0,0.0225,0.024,0.0237,0.0315,0.0366,0.0434,0.0468,0.0498,0.0526,0.055,0.0559,0.0572,0.0417,0.0285,0.0131,0.001,-0.0009,-0.0011,0.0015,0.0058,0.006,-0.0043,-0.0071,0,0,0,0,0]}],[{"header":{"parameterUnit":"m.s-1","parameterCategory":2,"la1":30.2991,"la2":30.254,"lo1":-89.0895,"lo2":-89.0444,"dy":0.0017,"dx":0.0017,"nx":28,"ny":28,"refTime":"2023-09-06T03:00:00:Z","depth":"4","parameterNumber":2,"parameterNumberName":"U-component_of_CURRENTS"},"data":[0,0,0,0,0,0,0,0,0,0,0,0,0,0,0,0,0,0,0,0,0,0,0,0,0,0,0,0,0,0,0,0,0,0,0,0,0,0,0,0,0,0,0,0,0,0,0,0,0,0,0,0,0,0,0,0,0,0,0.0268,0.0269,0,0.0321,0.0321,0.0322,0.038,0.038,0.0381,0.0382,0.0454,0.0455,0.0457,0,0,0,0,0,0,0,0,0,0,0,0,0,0.0288,0.0287,0.0268,0.0269,0.0269,0.0321,0.0321,0.0322,0.0379,0.038,0.0381,0.0382,0.0454,0.0455,0.0457,0,0,0,0,0,0,0,0,0,0,0,0,0,0.0304,0.0287,0.0268,0.0304,0.0307,0.032,0.0321,0.0322,0.0379,0.038,0.0382,0.0383,0.0453,0.0455,0.0457,0.0446,0,0,0.0462,0.0463,0,0,0,0,0,0,0,0,0.0303,0.0304,0.0298,0.0301,0.0305,0.0344,0.0355,0.0364,0.0379,0.0353,0.0382,0.0383,0.0418,0.0422,0.0431,0.0449,0.0452,0.0463,0.0464,0.0465,0.0465,0,0,0,0,0,0,0,0.0302,0.0302,0.029,0.0298,0.0303,0.0341,0.0344,0.0357,0.0379,0.0355,0.0359,0.0363,0.042,0.0429,0.0433,0.0453,0.0463,0.0464,0.0465,0.0466,0.056,0.0562,0,0,0,0,0,0,0.0288,0.03,0.0288,0.0292,0.0306,0.0339,0.0343,0.0331,0.0379,0.0387,0.0362,0.0366,0.0425,0.0431,0.0436,0.0502,0.0465,0.0466,0.0467,0.0559,0.0561,0.0562,0,0,0,0,0,0,0.0288,0.0286,0.0286,0.0298,0.03,0.0337,0.0324,0.0332,0.0368,0.0384,0.0393,0.0395,0.0426,0.0433,0.0467,0.0502,0.0467,0.0469,0.0557,0.056,0.0562,0.0585,0,0,0,0,0,0,0.0288,0.0285,0.029,0.0296,0.0299,0.0309,0.0323,0.0332,0.0367,0.0373,0.0414,0.042,0.0428,0.0465,0.0469,0.0504,0.047,0.0556,0.0558,0.0561,0.0583,0.0588,0.0592,0,0,0,0,0,0.0289,0.0284,0.0289,0.0289,0.0297,0.0309,0.0315,0.0346,0.0368,0.0384,0.0412,0.042,0.0485,0.0466,0.0472,0.0508,0.0554,0.0558,0.0561,0.058,0.0587,0.0592,0,0,0,0,0,0,0.0318,0.0289,0.0296,0.0289,0.0306,0.0319,0.034,0.0359,0.0394,0.0409,0.0427,0.0435,0.0478,0.0489,0.0468,0.0545,0.0526,0.053,0.0539,0.0545,0.055,0.0571,0.0472,0,0,0,0,0,0.0318,0.0294,0.0295,0.0297,0.0303,0.0327,0.0343,0.0362,0.0385,0.0404,0.0433,0.0466,0.049,0.0514,0.0533,0.0571,0.0577,0.0602,0.0607,0.0611,0.0633,0.0654,0.0662,0.0573,0.0573,0.0573,0,0,0.0324,0.0314,0.0299,0.03,0.0316,0.033,0.0341,0.0368,0.0393,0.0404,0.0458,0.0479,0.0501,0.0543,0.0566,0.0561,0.0639,0.0615,0.0618,0.0638,0.0658,0.0666,0.0674,0.0575,0.0574,0.0574,0,0,0.033,0.0323,0.0309,0.032,0.0341,0.0352,0.0365,0.0393,0.0421,0.0463,0.0479,0.0518,0.0566,0.0586,0.0601,0.0644,0.0656,0.0665,0.0716,0.0735,0.0742,0.0749,0.0758,0.0765,0.0676,0.0676,0.0676,0,0.0363,0.0329,0.0316,0.0324,0.034,0.0364,0.0381,0.0405,0.0448,0.0478,0.0489,0.0568,0.0585,0.063,0.066,0.0655,0.0672,0.0687,0.074,0.0747,0.0753,0.0761,0.0769,0.0678,0.0678,0.0678,0.0677,0,0.0349,0.0345,0.0346,0.0349,0.0368,0.0387,0.0412,0.0453,0.0494,0.0523,0.0587,0.0609,0.0662,0.0676,0.069,0.0753,0.075,0.0733,0.0721,0.0763,0.0769,0.0777,0.068,0.0679,0.0679,0.0679,0,0,0.0388,0.0341,0.035,0.0353,0.0384,0.0397,0.0447,0.0492,0.0531,0.0588,0.0644,0.0698,0.0728,0.0748,0.0764,0.0798,0.0853,0.0808,0.0808,0.0811,0.0906,0.0846,0.0848,0.0853,0.0855,0.0856,0.0887,0,0.0402,0.0379,0.037,0.0393,0.0392,0.0434,0.0476,0.0528,0.0572,0.0632,0.0678,0.0737,0.0746,0.0789,0.0821,0.0845,0.0878,0.0847,0.0872,0.0873,0.0808,0.0856,0.0862,0.0893,0.0894,0.0896,0.0896,0,0.0411,0.0387,0.038,0.0397,0.0409,0.0448,0.0521,0.0562,0.0643,0.0689,0.0755,0.0784,0.0859,0.0855,0.0917,0.0904,0.0926,0.0936,0.0936,0.0883,0.0827,0.0846,0.091,0.0909,0.0908,0.0907,0.0906,0,0.0412,0.0415,0.0399,0.0404,0.0423,0.0474,0.0525,0.0599,0.064,0.0744,0.0784,0.0851,0.0901,0.0938,0.0973,0.0962,0.1028,0.0993,0.0952,0.0947,0.0978,0.0971,0.1045,0.1045,0.1045,0.1045,0.1045,0,0.0418,0.0423,0.0407,0.0396,0.0442,0.0483,0.0553,0.0619,0.0703,0.0738,0.0824,0.0847,0.0934,0.0969,0.0992,0.0998,0.1038,0.098,0.096,0.0986,0.0979,0.0982,0.0975,0.1046,0.1046,0.1045,0.1045,0,0.0416,0.0397,0.0383,0.04,0.0432,0.0476,0.0578,0.0612,0.0711,0.0759,0.0805,0.088,0.0927,0.0979,0.1036,0.1012,0.1028,0.1022,0.1058,0.1036,0.0927,0.0921,0.0969,0.0967,0.0966,0.0965,0.0964,0,0.0409,0.0388,0.037,0.0382,0.0404,0.0477,0.0523,0.0628,0.0647,0.0744,0.0746,0.0839,0.0875,0.0904,0.0969,0.1013,0.1006,0.1011,0.0972,0.0949,0.0924,0.092,0.0915,0.0961,0.0961,0.0961,0.096,0,0.04,0.038,0.0341,0.0337,0.0383,0.0413,0.0483,0.0495,0.0585,0.0671,0.0691,0.0743,0.079,0.0847,0.0913,0.093,0.1005,0.0996,0.0998,0.0961,0.094,0.0916,0.0913,0.0955,0.0956,0.0957,0.0957,0,0.0406,0.0354,0.0288,0.0296,0.0336,0.0337,0.0379,0.0409,0.0458,0.056,0.0557,0.0658,0.0748,0.0803,0.0842,0.0885,0.0867,0.084,0.085,0.0856,0.0811,0.0767,0.0729,0,0,0,0,0,0.0425,0.0324,0.0272,0.0238,0.0266,0.0293,0.0337,0.0368,0.0442,0.0436,0.0504,0.0548,0.0635,0.069,0.0715,0.0791,0.0865,0.0815,0.0836,0.0929,0.0934,0.0896,0,0,0,0,0,0,0.0421,0.0344,0.023,0.0199,0.0184,0.0203,0.0229,0.0269,0.027,0.0362,0.0413,0.0512,0.0606,0.0622,0.0704,0.0726,0.0726,0.0895,0.0894,0.0925,0.093,0.0935,0.0897,0,0,0,0,0]},{"header":{"parameterUnit":"m.s-1","parameterCategory":2,"la1":30.2991,"la2":30.254,"lo1":-89.0895,"lo2":-89.0444,"dy":0.0017,"dx":0.0017,"nx":28,"ny":28,"refTime":"2023-09-06T03:00:00:Z","depth":"4","parameterNumber":3,"parameterNumberName":"V-component_of_CURRENTS"},"data":[0,0,0,0,0,0,0,0,0,0,0,0,0,0,0,0,0,0,0,0,0,0,0,0,0,0,0,0,0,0,0,0,0,0,0,0,0,0,0,0,0,0,0,0,0,0,0,0,0,0,0,0,0,0,0,0,0,0,0.017,0.017,0,0.0108,0.0107,0.0106,0.0043,0.0043,0.0042,0.0041,-0.0029,-0.003,-0.0032,0,0,0,0,0,0,0,0,0,0,0,0,0,0.0141,0.0143,0.017,0.017,0.0169,0.0108,0.0107,0.0106,0.0044,0.0043,0.0042,0.0041,-0.0029,-0.003,-0.0032,0,0,0,0,0,0,0,0,0,0,0,0,0,0.0123,0.0143,0.017,0.0131,0.0127,0.0108,0.0107,0.0106,0.0044,0.0043,0.0042,0.004,-0.0029,-0.003,-0.0032,-0.002,0,0,-0.0037,-0.0038,0,0,0,0,0,0,0,0,0.0124,0.0124,0.0138,0.0134,0.0129,0.0083,0.007,0.0063,0.0044,0.0075,0.0041,0.004,0.0009,0.0004,-0.0006,-0.0023,-0.0026,-0.0037,-0.0039,-0.0039,-0.004,0,0,0,0,0,0,0,0.0126,0.0126,0.0145,0.0137,0.0132,0.0084,0.0081,0.0068,0.0048,0.0072,0.0067,0.0062,0.0006,-0.0004,-0.0008,-0.0027,-0.0037,-0.0039,-0.004,-0.0041,-0.0062,-0.0061,0,0,0,0,0,0,0.0142,0.0128,0.0147,0.0143,0.0125,0.0086,0.0082,0.0098,0.0048,0.004,0.0063,0.0059,-0.0001,-0.0006,-0.0011,-0.0017,-0.0039,-0.0041,-0.0042,-0.0062,-0.0062,-0.0061,0,0,0,0,0,0,0.0142,0.0145,0.0149,0.0133,0.013,0.0088,0.0106,0.0098,0.0077,0.0042,0.0033,0.005,-0.0002,-0.0009,-0.0025,-0.002,-0.0042,-0.0043,-0.0063,-0.0062,-0.0061,-0.0018,0,0,0,0,0,0,0.0142,0.0146,0.0162,0.0135,0.0132,0.014,0.0107,0.0097,0.0076,0.007,0.0028,0.002,-0.0003,-0.0022,-0.0027,-0.0022,-0.0045,-0.0063,-0.0062,-0.0062,-0.002,-0.0016,-0.0012,0,0,0,0,0,0.0141,0.0167,0.0164,0.0165,0.0156,0.014,0.0134,0.0098,0.0077,0.0074,0.0044,0.0021,-0.002,-0.0023,-0.0029,-0.0025,-0.0064,-0.0063,-0.0062,-0.0021,-0.0016,-0.0012,0,0,0,0,0,0,0.0151,0.0163,0.0158,0.0183,0.0165,0.013,0.0124,0.01,0.0074,0.0064,0.0029,0.002,0.0008,-0.0011,-0.0014,-0.0027,-0.0046,-0.0046,-0.0013,-0.0009,-0.0005,-0.0006,-0.0046,0,0,0,0,0,0.0167,0.0196,0.0182,0.02,0.0194,0.0159,0.0147,0.0123,0.0096,0.0082,0.0053,0.0026,0.0011,-0.0002,-0.0019,-0.0024,-0.0044,-0.0025,-0.0021,-0.0018,-0.0022,-0.0045,-0.0043,-0.0057,-0.0057,-0.0057,0,0,0.017,0.0184,0.0195,0.0204,0.0186,0.0182,0.0149,0.0131,0.0124,0.0081,0.0062,0.0039,0.0013,0.0005,-0.0002,-0.0013,-0.0021,-0.0017,-0.0013,-0.002,-0.0043,-0.0042,-0.0041,-0.0057,-0.0057,-0.0057,0,0,0.019,0.0208,0.0232,0.0226,0.0211,0.0194,0.0191,0.0157,0.014,0.0124,0.0093,0.0074,0.0045,0.003,0.0019,0.0036,0.0002,0.0028,0.0044,0.0023,0.0024,0.0024,0.0015,0.0014,0.0028,0.0029,0.0029,0,0.0187,0.0227,0.023,0.0243,0.0237,0.0203,0.0206,0.019,0.0152,0.0143,0.0123,0.0081,0.0059,0.0053,0.0053,0.0045,0.0026,0.0029,0.0028,0.0028,0.0027,0.0017,0.0015,0.0031,0.0031,0.003,0.003,0,0.0212,0.0244,0.0253,0.027,0.0264,0.026,0.0241,0.0229,0.0203,0.018,0.0161,0.0131,0.0102,0.0098,0.0076,0.0066,0.0052,0.0037,0.0016,0.0031,0.002,0.0017,0.0034,0.0033,0.0032,0.0032,0,0,0.0205,0.0262,0.0263,0.0283,0.0277,0.0274,0.0273,0.0261,0.0256,0.0221,0.0212,0.0184,0.0153,0.0139,0.0113,0.0092,0.0078,0.0059,0.0057,0.005,0.0032,0.0033,0.003,0.0055,0.0054,0.0054,0.003,0,0.0216,0.0265,0.0282,0.0309,0.0327,0.0311,0.0314,0.0298,0.0277,0.0261,0.0228,0.0208,0.0175,0.0157,0.0132,0.0089,0.007,0.0086,0.0017,0.0016,0.0014,0.0027,0.0052,0.0028,0.0028,0.0027,0.0027,0,0.0224,0.0267,0.0304,0.0349,0.035,0.0353,0.035,0.0347,0.0323,0.0307,0.0278,0.0244,0.0213,0.018,0.0117,0.0123,0.0078,0.0046,0.0044,0.0024,0.0012,0.0005,0.0022,0.0022,0.0023,0.0023,0.0023,0,0.0219,0.0276,0.0314,0.0324,0.0362,0.0366,0.0367,0.0353,0.0357,0.0327,0.0326,0.0276,0.0255,0.019,0.012,0.011,0.005,0.0033,-0.0003,-0.0003,-0.0017,-0.0018,-0.0014,-0.0014,-0.0014,-0.0014,-0.0013,0,0.0222,0.0255,0.0317,0.0335,0.037,0.0377,0.0392,0.0385,0.0381,0.039,0.0344,0.0339,0.0252,0.0207,0.0134,0.0063,0.0061,0.0,-0.0012,0.0004,0.0007,-0.0018,-0.0018,-0.0014,-0.0014,-0.0014,-0.0014,0,0.0206,0.025,0.0304,0.0357,0.0372,0.0387,0.0418,0.0432,0.0422,0.0433,0.0426,0.0384,0.0323,0.0248,0.0149,0.0092,0.0018,-0.0008,0.0028,0.0018,-0.0024,-0.0022,-0.005,-0.005,-0.005,-0.0051,-0.0051,0,0.0208,0.0234,0.0313,0.0347,0.0372,0.0404,0.0431,0.0443,0.0458,0.046,0.0467,0.0421,0.0383,0.0256,0.0166,0.0046,0.0021,-0.0015,-0.0036,-0.002,-0.0029,-0.0027,-0.0024,-0.0051,-0.0051,-0.0051,-0.0051,0,0.0206,0.0229,0.0274,0.0352,0.0396,0.0446,0.0478,0.0489,0.0502,0.0517,0.049,0.0423,0.0364,0.0255,0.0169,0.0077,0.0008,-0.0018,-0.0019,-0.0038,-0.0022,-0.003,-0.0027,-0.0052,-0.0052,-0.0052,-0.0052,0,0.0202,0.0224,0.0286,0.035,0.0415,0.0458,0.0478,0.0499,0.0514,0.0512,0.0503,0.0435,0.0398,0.0272,0.0188,0.0105,0.0074,0.0031,0.0027,0.0027,0.0051,0.0084,0.0078,0,0,0,0,0,0.0201,0.0219,0.028,0.0348,0.0415,0.0454,0.0504,0.052,0.0538,0.0522,0.0508,0.0448,0.0326,0.0275,0.019,0.0178,0.0058,0.0074,0.0006,-0.0055,-0.0055,-0.004,0,0,0,0,0,0,0.0201,0.0241,0.0272,0.0341,0.0384,0.0452,0.0485,0.0501,0.0485,0.049,0.0427,0.0416,0.0299,0.0372,0.0184,0.0162,0.0103,0.0028,0.0025,-0.0056,-0.0055,-0.0054,-0.0039,0,0,0,0,0]}]]